This demonstration page uses our WeatherBlox Daily Observations layout. Learn more.

Left ArrowRight Arrow

36.17497, -115.13722

Hourly Observations for December 17, 2019

Temp ( °F °C ) Dew Point ( °F °C ) Humidity (%) Winds ( mph kmh ) Pressure ( in mb ) Visibility ( mi km ) Precip ( " mm )
12:53 am 00:53 Clear 39 3.9 15 -9.4 38 38 NNE 6 9 30.58 1035 10 16 0.00 0.00
1:53 am 01:53 Clear 37 2.8 16 -8.9 42 42 N 7 11 30.59 1036 10 16 0.00 0.00
2:53 am 02:53 Clear 37 2.8 15 -9.4 41 41 NNW 3 6 30.58 1036 10 16 0.00 0.00
3:53 am 03:53 Clear 34 1.1 17 -8.3 50 50 W 3 6 30.58 1036 10 16 0.00 0.00
4:53 am 04:53 Clear 32 0 18 -7.8 56 56 NNW 7 11 30.59 1036 10 16 0.00 0.00
5:53 am 05:53 Clear 31 -0.6 18 -7.8 59 59 WNW 7 11 30.62 1037 10 16 0.00 0.00
6:53 am 06:53 Sunny 32 0 16 -8.9 52 52 WNW 7 11 30.62 1037 10 16 0.00 0.00
7:53 am 07:53 Sunny 36 2.2 15 -9.4 42 42 WNW 8 13 30.62 1037 10 16 0.00 0.00
8:53 am 08:53 Sunny 41 5 12 -11.1 30 30 NNW 5 7 30.63 1037 10 16 0.00 0.00
9:53 am 09:53 Sunny 45 7.2 12 -11.1 26 26 NNE 3 6 30.63 1037 10 16 0.00 0.00
10:53 am 10:53 Sunny 45 7.2 12 -11.1 26 26 ESE 3 6 30.60 1036 10 16 0.00 0.00
11:53 am 11:53 Sunny 46 7.8 11 -11.7 24 24 Calm 30.56 1035 10 16 0.00 0.00
12:53 pm 12:53 Sunny 48 8.9 11 -11.7 22 22 Calm 30.51 1033 10 16 0.00 0.00
1:53 pm 13:53 Sunny 49 9.4 11 -11.7 21 21 E 3 6 30.49 1033 10 16 0.00 0.00
2:53 pm 14:53 Sunny 49 9.4 11 -11.7 21 21 E 5 7 30.47 1032 10 16 0.00 0.00
3:53 pm 15:53 Sunny 48 8.9 12 -11.1 23 23 SSW 5 7 30.46 1032 10 16 0.00 0.00
4:53 pm 16:53 Clear 47 8.3 13 -10.6 25 25 SW 5 7 30.45 1031 10 16 0.00 0.00
5:53 pm 17:53 Clear 46 7.8 13 -10.6 26 26 S 5 7 30.44 1031 10 16 0.00 0.00
6:53 pm 18:53 Clear 45 7.2 12 -11.1 26 26 Calm 30.43 1031 10 16 0.00 0.00
7:53 pm 19:53 Clear 41 5 17 -8.3 38 38 SE 5 7 30.42 1030 10 16 0.00 0.00
8:53 pm 20:53 Clear 40 4.4 17 -8.3 40 40 Calm 30.41 1030 10 16 0.00 0.00
9:53 pm 21:53 Clear 40 4.4 18 -7.8 41 41 Calm 30.39 1029 10 16 0.00 0.00
10:53 pm 22:53 Clear 39 3.9 21 -6.1 48 48 Calm 30.38 1029 10 16 0.00 0.00
11:53 pm 23:53 Clear 39 3.9 20 -6.7 46 46 WNW 3 6 30.36 1028 10 16 0.00 0.00

Powered by AerisWeather